CDT,Max TemperatureF,Mean TemperatureF,Min TemperatureF,Max Dew PointF,MeanDew PointF,Min DewpointF,Max Humidity, Mean Humidity, Min Humidity, Max Sea Level PressureIn, Mean Sea Level PressureIn, Min Sea Level PressureIn, Max VisibilityMiles, Mean VisibilityMiles, Min VisibilityMiles, Max Wind SpeedMPH, Mean Wind SpeedMPH, Max Gust SpeedMPH,PrecipitationIn, CloudCover, Events, WindDirDegrees
2013-6-1,77,70,63,66,61,55,93,70,47,29.79,29.69,29.65,10,10,6,22,11,28,0.00,6,,225
2013-6-2,63,55,46,59,50,45,93,74,55,30.04,29.94,29.79,10,10,10,22,9,29,0.00,6,,325
2013-6-3,70,59,47,50,47,44,93,67,40,30.13,30.06,30.01,10,10,10,13,4,15,0.00,2,,130
2013-6-4,73,61,48,56,49,44,86,65,44,30.14,30.07,30.01,10,10,10,21,8,26,T,2,,120
2013-6-5,68,63,58,61,57,52,97,85,72,30.06,29.98,29.92,10,8,3,12,6,14,0.09,7,Rain,76
2013-6-6,67,62,56,57,56,54,93,81,68,29.93,29.90,29.87,10,6,1,10,4,,0.58,8,Rain,43
2013-6-7,73,63,53,56,53,50,93,71,49,29.97,29.93,29.90,10,9,7,12,4,16,0.00,6,,24
2013-6-8,77,65,52,57,53,50,93,70,46,29.96,29.93,29.91,10,10,10,14,5,18,0.00,2,,136
2013-6-9,73,66,59,65,59,51,93,76,58,29.92,29.83,29.75,10,10,7,17,8,25,0.05,5,Rain,139
2013-6-10,78,67,55,62,58,55,100,77,54,29.88,29.80,29.75,10,4,0,13,4,21,0.00,4,Fog,270
2013-6-11,87,72,57,70,64,57,100,74,48,29.92,29.86,29.79,10,9,5,14,4,23,0.00,1,,161
2013-6-12,92,80,68,72,69,65,90,70,49,29.87,29.71,29.59,10,9,1,38,11,46,0.18,1,Rain-Thunderstorm,235
2013-6-13,83,73,62,66,58,52,90,65,39,30.00,29.89,29.68,10,10,7,18,7,26,T,3,,346
2013-6-14,80,69,57,60,57,54,93,71,48,30.13,30.05,29.94,10,10,9,14,6,16,0.00,0,,106
2013-6-15,81,73,65,71,65,60,87,73,58,30.02,29.94,29.85,10,10,5,23,8,32,0.02,4,Rain,196
2013-6-16,86,75,64,66,63,60,93,70,47,29.96,29.92,29.88,10,10,10,13,6,16,0.00,3,,257
2013-6-17,87,73,59,66,61,55,100,67,34,29.94,29.91,29.86,10,9,1,15,4,18,0.00,1,,242
2013-6-18,81,72,62,64,57,53,93,69,45,30.04,29.97,29.88,10,10,10,17,9,20,0.00,1,,72
2013-6-19,84,70,55,60,54,48,86,62,37,30.12,30.07,30.02,10,10,10,10,3,13,0.00,0,,98
2013-6-20,89,74,58,64,60,55,87,62,36,30.10,30.06,30.00,10,10,10,16,7,21,0.00,0,,142
2013-6-21,84,77,69,70,66,63,82,73,64,30.13,30.01,29.91,10,10,10,23,10,32,0.02,2,Rain-Thunderstorm,139
2013-6-22,92,82,71,74,69,64,84,67,49,30.06,29.97,29.88,10,10,10,21,12,28,T,2,Rain,141
2013-6-23,87,78,68,69,65,61,84,68,51,30.00,29.95,29.86,10,10,10,21,7,28,0.00,1,,171
2013-6-24,83,74,65,70,66,64,100,86,71,30.13,30.00,29.89,10,7,0,49,6,68,4.46,6,Fog-Rain-Thunderstorm,130
2013-6-25,87,78,68,73,70,65,93,76,59,29.89,29.83,29.77,10,10,7,15,7,21,T,1,,185
2013-6-26,86,77,67,74,69,64,94,78,61,29.79,29.74,29.71,10,9,2,29,5,39,0.49,3,Rain-Thunderstorm,224
2013-6-27,89,80,70,72,68,62,93,73,53,29.85,29.80,29.76,10,10,6,24,9,31,0.00,0,,275
2013-6-28,84,76,67,62,59,58,78,61,43,29.79,29.72,29.67,10,10,10,26,13,35,T,1,Rain,304
2013-6-29,75,70,64,64,62,60,87,78,68,29.81,29.70,29.65,10,9,1,22,8,29,0.25,6,Rain,342
2013-6-30,80,72,63,60,57,48,84,64,44,30.02,29.91,29.82,10,10,10,16,9,24,0.00,3,,16